EW5612 Weather Reports


Display with metric or nautical units.
time (UTC)temp
F
wind
direction
speed
MPH
gust
MPH
rain 1hr
in
rain 24hr
in
rain mn
in
humidity
%
barometer
mb
20260510204704 90 104 0.0 2.0 0.00 0.00 0.00 59 1011.1
20260510204204 89 207 0.0 3.0 0.00 0.00 0.00 60 1011.2
20260510203704 89 190 0.0 0.0 0.00 0.00 0.00 60 1011.2
20260510203203 89 117 0.0 1.0 0.00 0.00 0.00 60 1011.2
20260510202204 89 124 0.0 1.0 0.00 0.00 0.00 61 1011.2
20260510201703 89 127 0.0 2.0 0.00 0.00 0.00 63 1011.3
20260510201204 89 152 0.0 3.0 0.00 0.00 0.00 61 1011.3
20260510200203 89 128 0.0 0.0 0.00 0.00 0.00 62 1011.3
20260510195703 88 177 0.0 3.0 0.00 0.00 0.00 62 1011.4
20260510195204 88 190 1.0 6.0 0.00 0.00 0.00 63 1011.4
20260510194704 88 177 0.0 7.0 0.00 0.00 0.00 63 1011.5
20260510194204 87 123 0.0 0.0 0.00 0.00 0.00 64 1011.5
20260510193203 87 122 0.0 0.0 0.00 0.00 0.00 65 1011.5
20260510192703 87 123 0.0 0.0 0.00 0.00 0.00 65 1011.6
20260510191703 87 129 0.0 0.0 0.00 0.00 0.00 64 1011.6
20260510191203 86 96 0.0 0.0 0.00 0.00 0.00 64 1011.6
20260510190703 86 85 0.0 0.0 0.00 0.00 0.00 66 1011.8
20260510190203 86 127 0.0 0.0 0.00 0.00 0.00 65 1011.8
20260510185703 86 107 0.0 0.0 0.00 0.00 0.00 67 1011.8
20260510185203 86 129 0.0 0.0 0.00 0.00 0.00 65 1011.9
20260510184704 86 122 0.0 0.0 0.00 0.00 0.00 67 1011.9
20260510184204 86 105 0.0 0.0 0.00 0.00 0.00 69 1012.0
20260510183703 86 106 0.0 0.0 0.00 0.00 0.00 67 1012.0
20260510183204 85 125 0.0 0.0 0.00 0.00 0.00 69 1012.2
20260510182704 85 114 0.0 1.0 0.00 0.00 0.00 70 1012.3
20260510182204 85 182 0.0 0.0 0.00 0.00 0.00 70 1012.4
20260510181704 85 117 0.0 0.0 0.00 0.00 0.00 69 1012.5
20260510180704 85 55 0.0 0.0 0.00 0.00 0.00 72 1012.5
20260510180203 84 136 0.0 0.0 0.00 0.00 0.00 72 1012.6
20260510175704 84 160 0.0 0.0 0.00 0.00 0.00 72 1012.8
20260510175203 83 124 0.0 0.0 0.00 0.00 0.00 73 1012.8
20260510174704 83 116 0.0 0.0 0.00 0.00 0.00 74 1012.8
20260510174203 83 93 0.0 0.0 0.00 0.00 0.00 75 1012.9
20260510173704 82 91 0.0 0.0 0.00 0.00 0.00 75 1013.0
20260510173204 82 136 0.0 0.0 0.00 0.00 0.00 75 1013.0
20260510172704 82 165 0.0 0.0 0.00 0.00 0.00 78 1013.2
20260510172204 81 114 0.0 0.0 0.00 0.00 0.00 76 1013.3
20260510171203 80 109 0.0 1.0 0.00 0.00 0.00 78 1013.4
20260510170703 80 118 0.0 1.0 0.00 0.00 0.00 79 1013.4
20260510170204 79 118 0.0 0.0 0.00 0.00 0.00 80 1013.5
20260510165203 79 159 0.0 0.0 0.00 0.00 0.00 82 1013.5
20260510164703 78 153 0.0 0.0 0.00 0.00 0.00 83 1013.6
20260510164203 78 177 0.0 0.0 0.00 0.00 0.00 84 1013.7
20260510163703 77 114 0.0 0.0 0.00 0.00 0.00 84 1013.7
20260510163204 77 114 0.0 0.0 0.00 0.00 0.00 85 1013.7
20260510162704 76 114 0.0 0.0 0.00 0.00 0.00 87 1013.7
20260510162203 76 114 0.0 0.0 0.00 0.00 0.00 87 1013.7
20260510161703 75 114 0.0 0.0 0.00 0.00 0.00 88 1013.7
20260510161204 75 117 0.0 0.0 0.00 0.00 0.00 89 1013.7
20260510160204 74 137 0.0 0.0 0.00 0.00 0.00 90 1013.8
20260510155703 74 116 0.0 0.0 0.00 0.00 0.00 91 1013.7
20260510155203 74 113 0.0 0.0 0.00 0.00 0.00 92 1013.7
20260510154704 74 114 0.0 0.0 0.00 0.00 0.00 92 1013.8
20260510154203 73 113 0.0 0.0 0.00 0.00 0.00 92 1013.8
20260510153703 73 108 0.0 0.0 0.00 0.00 0.00 92 1013.9
20260510153204 73 111 0.0 0.0 0.00 0.00 0.00 92 1013.9
20260510151703 73 107 0.0 0.0 0.00 0.00 0.00 93 1013.7
20260510151203 73 107 0.0 0.0 0.00 0.00 0.00 94 1013.7
20260510150703 73 107 0.0 0.0 0.00 0.00 0.00 94 1013.6
20260510150204 73 108 0.0 0.0 0.00 0.00 0.00 94 1013.6
20260510145704 72 104 0.0 1.0 0.00 0.00 0.00 94 1013.5
20260510145204 72 106 0.0 0.0 0.00 0.00 0.00 94 1013.5
20260510144704 72 113 0.0 0.0 0.00 0.00 0.00 95 1013.5
20260510144203 72 113 0.0 0.0 0.00 0.00 0.00 95 1013.4
20260510143703 72 113 0.0 0.0 0.00 0.00 0.00 95 1013.3
20260510143203 71 113 0.0 0.0 0.00 0.00 0.00 95 1013.2
20260510142704 71 113 0.0 0.0 0.00 0.00 0.00 95 1013.3
20260510142204 71 113 0.0 0.0 0.00 0.00 0.00 95 1013.2
20260510141203 71 113 0.0 0.0 0.00 0.00 0.00 95 1013.1
20260510140704 71 113 0.0 0.0 0.00 0.00 0.00 95 1013.0
20260510140204 71 113 0.0 0.0 0.00 0.00 0.00 95 1012.9
20260510135704 71 113 0.0 0.0 0.00 0.00 0.00 95 1012.8
20260510135204 70 115 0.0 0.0 0.00 0.00 0.00 95 1012.7
20260510134703 71 115 0.0 0.0 0.00 0.00 0.00 95 1012.7
20260510133704 70 115 0.0 0.0 0.00 0.00 0.00 95 1012.6
20260510133203 70 115 0.0 0.0 0.00 0.00 0.00 95 1012.6
20260510132203 70 115 0.0 0.0 0.00 0.00 0.00 95 1012.2
20260510131703 70 115 0.0 0.0 0.00 0.00 0.00 95 1012.1
20260510130704 70 115 0.0 0.0 0.00 0.00 0.00 95 1012.0
20260510125703 70 115 0.0 0.0 0.00 0.00 0.00 96 1011.7
20260510125203 69 115 0.0 0.0 0.00 0.00 0.00 95 1011.6
20260510124204 69 115 0.0 0.0 0.00 0.00 0.00 95 1011.6
20260510123704 69 115 0.0 0.0 0.00 0.00 0.00 96 1011.6
20260510123203 69 115 0.0 0.0 0.00 0.00 0.00 95 1011.5
20260510122703 68 115 0.0 0.0 0.00 0.00 0.00 96 1011.5
20260510121204 67 115 0.0 0.0 0.00 0.00 0.00 95 1011.2
20260510120703 67 115 0.0 0.0 0.00 0.00 0.00 95 1011.1
20260510120204 67 115 0.0 0.0 0.00 0.00 0.00 95 1011.0
20260510115703 67 115 0.0 0.0 0.00 0.00 0.00 94 1010.9
20260510115204 66 115 0.0 0.0 0.00 0.00 0.00 94 1010.8
20260510114704 66 115 0.0 0.0 0.00 0.00 0.00 94 1010.7
20260510114204 66 115 0.0 0.0 0.00 0.00 0.00 94 1010.7
20260510113204 66 115 0.0 0.0 0.00 0.00 0.00 94 1010.6
20260510112704 67 115 0.0 0.0 0.00 0.00 0.00 94 1010.6
20260510111203 67 115 0.0 0.0 0.00 0.00 0.00 94 1010.4
20260510110703 67 115 0.0 0.0 0.00 0.00 0.00 94 1010.2
20260510110204 67 115 0.0 0.0 0.00 0.00 0.00 94 1010.0
20260510105704 67 115 0.0 0.0 0.00 0.00 0.00 94 1009.9
20260510105203 67 115 0.0 0.0 0.00 0.00 0.00 94 1010.0
20260510104204 67 115 0.0 0.0 0.00 0.00 0.00 94 1009.9
20260510103203 67 115 0.0 0.0 0.00 0.00 0.00 93 1010.0
20260510102703 67 115 0.0 0.0 0.00 0.00 0.00 93 1010.0
20260510102204 67 115 0.0 0.0 0.00 0.00 0.00 93 1010.0
20260510101704 67 115 0.0 0.0 0.00 0.00 0.00 93 1009.9
20260510101204 67 115 0.0 0.0 0.00 0.00 0.00 93 1009.8
20260510100704 67 115 0.0 0.0 0.00 0.00 0.00 93 1009.8
20260510100204 67 115 0.0 0.0 0.00 0.00 0.00 93 1009.9
20260510095703 67 115 0.0 0.0 0.00 0.00 0.00 93 1009.8
20260510094704 68 115 0.0 0.0 0.00 0.00 0.00 93 1010.0
20260510094203 68 115 0.0 0.0 0.00 0.00 0.00 93 1010.0
20260510093704 68 115 0.0 0.0 0.00 0.00 0.00 93 1010.0
20260510093204 68 115 0.0 0.0 0.00 0.00 0.00 93 1010.0
20260510092703 68 115 0.0 0.0 0.00 0.00 0.00 93 1009.9
20260510091703 68 115 0.0 0.0 0.00 0.00 0.00 92 1010.0
20260510090704 68 115 0.0 0.0 0.00 0.00 0.00 92 1010.1
20260510085703 68 115 0.0 0.0 0.00 0.00 0.00 92 1010.1
20260510085204 68 115 0.0 0.0 0.00 0.00 0.00 91 1010.1
20260510084704 68 115 0.0 0.0 0.00 0.01 0.00 91 1010.1
20260510084204 68 115 0.0 0.0 0.00 0.01 0.00 91 1010.1
20260510083703 68 115 0.0 0.0 0.00 0.01 0.00 91 1010.1
20260510083203 68 115 0.0 0.0 0.00 0.02 0.00 91 1010.1
20260510082703 68 115 0.0 0.0 0.00 0.02 0.00 91 1010.1
20260510082204 69 115 0.0 0.0 0.00 0.02 0.00 91 1010.2
20260510081704 69 115 0.0 0.0 0.00 0.02 0.00 90 1010.2
20260510081204 69 115 0.0 0.0 0.00 0.02 0.00 90 1010.1
20260510080704 69 115 0.0 0.0 0.00 0.02 0.00 90 1010.1
20260510080204 69 115 0.0 0.0 0.00 0.02 0.00 90 1010.1
20260510075704 69 115 0.0 0.0 0.00 0.02 0.00 90 1010.0
20260510075203 69 115 0.0 0.0 0.00 0.02 0.00 90 1010.1
20260510074704 69 115 0.0 0.0 0.00 0.02 0.00 90 1010.1
20260510074204 69 115 0.0 0.0 0.00 0.02 0.00 90 1010.0
20260510073203 69 115 0.0 0.0 0.00 0.02 0.00 89 1010.1
20260510072704 69 115 0.0 0.0 0.00 0.02 0.00 89 1010.0
20260510071703 69 115 0.0 0.0 0.00 0.02 0.00 89 1010.1
20260510071203 69 115 0.0 0.0 0.00 0.02 0.00 89 1010.1
20260510070204 69 115 0.0 0.0 0.00 0.02 0.00 88 1010.0
20260510065204 69 115 0.0 0.0 0.00 0.02 0.00 88 1010.2
20260510064703 69 115 0.0 0.0 0.00 0.02 0.00 88 1010.1
20260510064203 69 115 0.0 0.0 0.00 0.02 0.00 87 1010.2
20260510063704 69 115 0.0 0.0 0.00 0.02 0.00 87 1010.1
20260510063203 70 115 0.0 0.0 0.00 0.02 0.00 86 1010.1
20260510062704 70 115 0.0 0.0 0.00 0.02 0.00 86 1010.1
20260510062203 70 115 0.0 0.0 0.00 0.02 0.00 86 1010.1
20260510061704 70 115 0.0 0.0 0.00 0.02 0.00 85 1010.1
20260510061203 70 115 0.0 0.0 0.00 0.02 0.00 85 1010.1
20260510060704 70 115 0.0 0.0 0.00 0.02 0.00 85 1010.1
20260510060204 70 115 0.0 0.0 0.00 0.02 0.00 85 1010.1
20260510055204 70 115 0.0 0.0 0.00 0.02 0.00 84 1010.1
20260510054704 70 115 0.0 0.0 0.00 0.02 0.00 84 1010.0
20260510054204 70 115 0.0 0.0 0.00 0.02 0.00 84 1010.0
20260510053704 70 115 0.0 0.0 0.00 0.02 0.00 84 1009.9
20260510052704 70 115 0.0 0.0 0.00 0.02 0.00 84 1009.9
20260510052204 71 115 0.0 0.0 0.00 0.02 0.00 84 1009.9
20260510051704 71 115 0.0 0.0 0.00 0.02 0.00 83 1009.9
20260510050704 71 115 0.0 0.0 0.00 0.02 0.00 82 1009.8
20260510050203 71 115 0.0 0.0 0.00 0.02 0.00 82 1009.9
20260510045703 71 115 0.0 0.0 0.00 0.02 0.02 82 1009.9
20260510045203 71 115 0.0 0.0 0.00 0.02 0.02 82 1009.8
20260510044704 71 115 0.0 0.0 0.00 0.02 0.02 82 1009.8
20260510044204 71 115 0.0 0.0 0.00 0.02 0.02 81 1009.7
20260510043704 71 115 0.0 0.0 0.00 0.02 0.02 81 1009.8
20260510043204 72 115 0.0 0.0 0.00 0.02 0.02 81 1009.8
20260510042704 72 115 0.0 0.0 0.00 0.02 0.02 81 1009.7
20260510041704 72 115 0.0 0.0 0.00 0.02 0.02 82 1009.7
20260510041204 72 115 0.0 0.0 0.00 0.02 0.02 81 1009.6
20260510040704 72 115 0.0 0.0 0.00 0.02 0.02 81 1009.6
20260510040203 72 115 0.0 0.0 0.00 0.02 0.02 82 1009.5
20260510035703 72 115 0.0 0.0 0.00 0.02 0.02 82 1009.5
20260510034703 73 115 0.0 0.0 0.00 0.02 0.02 82 1009.3
20260510034204 73 115 0.0 0.0 0.00 0.02 0.02 82 1009.3
20260510033704 73 115 0.0 0.0 0.00 0.02 0.02 82 1009.3
20260510033203 73 115 0.0 0.0 0.00 0.02 0.02 81 1009.3
20260510032704 74 115 0.0 0.0 0.00 0.02 0.02 81 1009.2
20260510031703 74 115 0.0 0.0 0.00 0.02 0.02 82 1009.1
20260510031204 74 115 0.0 0.0 0.00 0.02 0.02 81 1009.0
20260510030704 74 115 0.0 0.0 0.00 0.02 0.02 81 1009.0
20260510030203 74 115 0.0 0.0 0.00 0.02 0.02 81 1008.9
20260510025704 75 115 0.0 0.0 0.00 0.02 0.02 82 1008.8
20260510024704 75 115 0.0 0.0 0.00 0.02 0.02 81 1008.6
20260510024204 75 115 0.0 0.0 0.00 0.02 0.02 81 1008.6
20260510023704 76 115 0.0 0.0 0.00 0.02 0.02 81 1008.5
20260510023204 76 115 0.0 0.0 0.00 0.02 0.02 80 1008.4
20260510022704 76 115 0.0 0.0 0.00 0.02 0.02 79 1008.3
20260510022203 77 115 0.0 0.0 0.00 0.02 0.02 79 1008.3
20260510021703 77 115 0.0 0.0 0.00 0.02 0.02 78 1008.3
20260510021203 77 115 0.0 0.0 0.00 0.02 0.02 78 1008.2
20260510020703 77 115 0.0 0.0 0.00 0.02 0.02 77 1008.2
20260510020203 78 115 0.0 0.0 0.00 0.02 0.02 76 1008.1
20260510015704 78 115 0.0 0.0 0.00 0.02 0.02 76 1008.0
20260510015204 78 115 0.0 0.0 0.00 0.02 0.02 76 1008.0
20260510014704 79 115 0.0 0.0 0.00 0.02 0.02 75 1007.9
20260510014203 79 115 0.0 0.0 0.00 0.02 0.02 75 1007.8
20260510013704 79 115 0.0 0.0 0.00 0.02 0.02 74 1007.8
20260510013204 80 115 0.0 0.0 0.00 0.02 0.02 74 1007.7
20260510012704 80 115 0.0 0.0 0.00 0.02 0.02 73 1007.7
20260510012204 80 115 0.0 0.0 0.00 0.02 0.02 73 1007.6
20260510011704 80 115 0.0 0.0 0.00 0.02 0.02 73 1007.6
20260510010704 81 115 0.0 0.0 0.00 0.02 0.02 74 1007.5
20260510004704 82 115 0.0 0.0 0.00 0.02 0.02 72 1007.4
20260510004203 83 115 0.0 0.0 0.00 0.02 0.02 71 1007.4
20260510003703 83 115 0.0 0.0 0.00 0.02 0.02 70 1007.4
20260510003203 83 115 0.0 0.0 0.00 0.02 0.02 69 1007.4
20260510002703 84 115 0.0 0.0 0.00 0.02 0.02 68 1007.4
20260510001703 85 93 0.0 0.0 0.00 0.02 0.02 68 1007.2
20260510001204 85 93 0.0 0.0 0.00 0.02 0.02 67 1007.1
20260510000703 86 100 0.0 2.0 0.00 0.02 0.02 67 1007.1
20260510000204 86 98 0.0 0.0 0.00 0.02 0.02 66 1007.1
20260509235703 86 94 0.0 0.0 0.00 0.02 0.02 66 1007.1
20260509235203 86 91 0.0 0.0 0.00 0.02 0.02 65 1007.0
20260509234703 86 91 0.0 0.0 0.00 0.02 0.02 64 1007.0
20260509234204 87 90 0.0 1.0 0.00 0.02 0.02 65 1006.9
20260509233704 87 90 0.0 0.0 0.00 0.02 0.02 65 1006.9
20260509233204 87 90 0.0 0.0 0.00 0.02 0.02 64 1006.9
20260509232703 87 90 0.0 0.0 0.00 0.02 0.02 64 1006.9
20260509232204 87 90 0.0 0.0 0.00 0.02 0.02 64 1006.8
20260509231704 87 90 0.0 0.0 0.00 0.02 0.02 66 1006.8
20260509231204 87 90 0.0 0.0 0.00 0.02 0.02 66 1006.8
20260509230703 86 90 0.0 0.0 0.00 0.02 0.02 66 1006.7
20260509230204 86 90 0.0 0.0 0.00 0.02 0.02 66 1006.8
20260509225703 85 102 0.0 0.0 0.00 0.02 0.02 66 1006.7
20260509224204 83 343 0.0 0.0 0.00 0.02 0.02 70 1006.7
20260509223704 83 343 0.0 0.0 0.00 0.02 0.02 72 1006.7
20260509223204 82 343 0.0 0.0 0.00 0.02 0.02 73 1006.8
20260509222704 82 343 0.0 0.0 0.00 0.02 0.02 72 1006.8
20260509222203 81 343 0.0 0.0 0.00 0.02 0.02 73 1006.8
20260509221703 81 343 0.0 0.0 0.00 0.02 0.02 70 1006.8
20260509221203 80 343 0.0 0.0 0.00 0.02 0.02 71 1006.8
20260509220703 80 342 0.0 0.0 0.00 0.02 0.02 70 1006.7
20260509220203 80 344 0.0 0.0 0.00 0.02 0.02 71 1006.7
20260509215704 79 344 0.0 0.0 0.00 0.02 0.02 69 1006.8
20260509215203 80 344 0.0 0.0 0.00 0.02 0.02 67 1006.8
20260509214704 80 343 0.0 0.0 0.00 0.02 0.02 67 1006.9
20260509214203 80 344 0.0 0.0 0.00 0.02 0.02 67 1007.0
20260509213203 82 71 0.0 0.0 0.00 0.02 0.02 67 1007.1
20260509212703 82 312 0.0 0.0 0.00 0.02 0.02 68 1007.1
20260509212203 83 249 0.0 0.0 0.00 0.02 0.02 67 1007.1
20260509211703 84 272 0.0 1.0 0.00 0.02 0.02 67 1007.3
20260509211204 85 355 0.0 1.0 0.00 0.02 0.02 68 1007.4
20260509210203 87 306 0.0 0.0 0.00 0.02 0.02 65 1007.3
20260509205204 88 225 0.0 0.0 0.00 0.02 0.02 61 1007.2